OE3TEC-15 Weather Reports


Display with metric or nautical units.
time (UTC)temp
F
wind
direction
speed
MPH
gust
MPH
rain 1hr
in
rain 24hr
in
rain mn
in
humidity
%
barometer
mb
20260905200809 66 234 3.0 7.0 0.00 0.00 0.12 66 1023.4
20260905192738 66 229 3.0 7.0 0.00 0.00 0.12 64 1022.9
20260905190718 65 222 2.0 3.0 0.00 0.00 0.12 61 1022.7
20260905185641 66 220 2.0 3.0 0.00 0.00 0.12 59 1022.6
20260905184619 68 217 2.0 7.0 0.00 0.00 0.12 54 1022.5
20260905181521 70 230 3.0 8.0 0.00 0.00 0.12 50 1021.9
20260905174438 72 233 4.0 8.0 0.00 0.00 0.12 47 1021.5
20260905173425 72 227 4.0 7.0 0.00 0.00 0.12 46 1021.4
20260905171411 73 239 4.0 8.0 0.00 0.00 0.12 46 1021.1
20260905170353 73 239 4.0 9.0 0.00 0.00 0.12 46 1020.7
20260905165350 73 257 5.0 11.0 0.00 0.00 0.12 45 1020.8
20260905164313 74 228 6.0 11.0 0.00 0.00 0.12 44 1021.1
20260905160154 76 247 8.0 18.0 0.00 0.00 0.12 42 1020.6
20260905153122 76 226 7.0 19.0 0.00 0.00 0.12 43 1020.4
20260905144022 77 235 9.0 16.0 0.00 0.00 0.12 41 1020.3
20260905135903 77 235 9.0 17.0 0.00 0.00 0.12 43 1020.3
20260905123703 75 246 6.0 16.0 0.00 0.00 0.12 50 1020.8
20260905122654 76 232 6.0 17.0 0.00 0.00 0.12 49 1020.5
20260905121618 75 226 7.0 16.0 0.00 0.00 0.12 51 1020.8
20260905115534 74 228 5.0 16.0 0.00 0.00 0.12 52 1020.7
20260905114514 73 224 4.0 14.0 0.00 0.00 0.12 56 1020.8
20260905113458 71 218 1.0 6.0 0.00 0.00 0.12 66 1020.9
20260905110427 72 242 8.0 14.0 0.00 0.00 0.12 66 1021.2
20260905104411 69 232 7.0 15.0 0.00 0.00 0.12 73 1021.0
20260905103406 69 244 6.0 14.0 0.00 0.00 0.12 72 1021.1
20260905101326 67 235 7.0 13.0 0.00 0.00 0.12 76 1021.6
20260905100250 67 244 8.0 16.0 0.00 0.00 0.12 77 1021.5
20260905095246 66 247 7.0 13.0 0.00 0.00 0.12 78 1021.5
20260905093225 64 241 7.0 14.0 0.00 0.00 0.12 81 1021.4
20260905091202 63 236 6.0 13.0 0.01 0.00 0.12 84 1021.6
20260905090158 62 236 4.0 10.0 0.02 0.00 0.12 85 1021.6
20260905083042 60 245 6.0 13.0 0.03 0.00 0.12 90 1021.5
20260905082039 60 242 9.0 15.0 0.04 0.00 0.12 90 1021.6
20260905081002 60 244 8.0 14.0 0.04 0.00 0.11 89 1021.6
20260905074937 60 242 9.0 16.0 0.03 0.00 0.10 88 1021.4
20260905072930 60 241 6.0 10.0 0.04 0.00 0.08 86 1021.5
20260905071922 60 230 4.0 8.0 0.04 0.00 0.07 86 1021.8
20260905070910 60 237 5.0 7.0 0.04 0.00 0.07 88 1021.9
20260905064831 60 209 1.0 3.0 0.07 0.00 0.07 87 1021.2
20260905063754 60 221 2.0 6.0 0.06 0.00 0.06 83 1020.8
20260905060711 61 203 0.0 1.0 0.03 0.00 0.03 81 1020.6
20260905054631 62 227 3.0 6.0 0.00 0.00 0.00 72 1020.9
20260905052603 64 227 3.0 9.0 0.00 0.00 0.00 65 1020.7
20260905044506 66 211 2.0 7.0 0.00 0.00 0.00 60 1019.1
20260905040347 68 196 1.0 7.0 0.00 0.00 0.00 56 1018.5
20260905034306 69 242 2.0 6.0 0.00 0.00 0.00 56 1018.2
20260905032226 69 200 1.0 4.0 0.00 0.00 0.00 57 1018.2
20260905031221 69 169 2.0 9.0 0.00 0.00 0.00 57 1017.7
20260905022135 73 211 5.0 17.0 0.00 0.00 0.00 58 1016.1
20260905020055 78 243 4.0 8.0 0.00 0.00 0.00 49 1014.7
20260905005931 73 235 3.0 4.0 0.00 0.00 0.00 57 1014.4
20260905004928 74 233 3.0 4.0 0.00 0.00 0.00 55 1014.4
20260905001811 76 232 4.0 6.0 0.00 0.00 0.00 50 1014.4
20260904231659 75 231 2.0 4.0 0.00 0.00 0.00 50 1014.0
20260904230643 74 227 2.0 3.0 0.00 0.00 0.00 51 1013.9
20260904223559 65 195 0.0 0.0 0.00 0.00 0.00 69 1013.9
20260904222523 64 207 0.0 2.0 0.00 0.00 0.00 71 1014.0
20260904215421 63 193 0.0 0.0 0.00 0.00 0.00 74 1013.7
20260904214403 62 202 0.0 0.0 0.00 0.00 0.00 75 1013.7